SES-6

Last updated on Dec. 14, 2019, 4:30 a.m. UTC

1 39172U 13026A   19347.83600970 -.00000245  00000-0  00000-0 0  9993
2 39172   0.0156   3.6709 0002245 265.5402  73.5000  1.00270420 23880
UTC
Height (km)
Latitude
Longitude
Inclination
Orbital Period
UTC large
Height (km)
Speed (km/s)
/
Latitude / Longitude
Inclination (degrees)
Orbital Period (minutes)
Azimuth
Elevation
Range (km)
Doppler Factor
iOS Compass Heading
iOS Angle

Next 30 passes for location: Hong Kong

Rise time Rise Azimuth (degrees) Set time Set Azimuth (degrees) Duration Max altitude (degrees)

No matching passes for this satellites